Location: Newark
(38.7000°N, 115.1000°W)
Time: 04:37:23
(UTC+00:00)

Envisat - Visible Passes

Search period start: 22 January 2020 00:00
Search period end: 01 February 2020 00:00
Orbit: 764 x 766 km, 98.1° (Epoch: 21 January)

Date Brightness Start Highest point End Pass type
(mag) Time Alt. Az. Time Alt. Az. Time Alt. Az.
22 Jan 5.6 02:38:17 10° SW 02:42:06 21° W 02:45:57 10° NW visible
22 Jan 6.1 13:09:41 10° NE 13:12:42 16° E 13:15:42 10° SE visible
23 Jan 4.1 02:00:14 10° S 02:05:07 48° W 02:10:03 10° NNW visible
23 Jan 3.6 14:10:15 10° NNE 14:15:19 65° ESE 14:20:21 10° S visible
24 Jan 3.0 01:23:17 10° SSE 01:28:20 74° ENE 01:33:25 10° N visible
24 Jan 6.3 03:06:12 10° WSW 03:07:51 11° W 03:09:31 10° WNW visible
24 Jan 5.2 13:34:02 10° NE 13:38:24 28° E 13:42:43 10° SSE visible
25 Jan 5.2 02:26:28 10° SSW 02:30:44 27° W 02:35:01 10° NW visible
25 Jan 6.3 12:59:23 10° ENE 13:01:17 12° E 13:03:11 10° ESE visible
26 Jan 3.6 01:48:47 10° S 01:53:48 63° W 01:58:51 10° NNW visible
26 Jan 4.1 13:59:03 10° NNE 14:04:00 50° E 14:08:55 10° S visible
27 Jan 6.1 02:53:33 10° SW 02:56:26 15° W 02:59:20 10° NW visible
27 Jan 5.7 13:23:07 10° NE 13:27:01 22° E 13:30:55 10° SE visible
28 Jan 4.8 02:14:47 10° SSW 02:19:22 34° W 02:24:00 10° NNW visible
29 Jan 3.2 01:37:26 10° S 01:42:30 80° WSW 01:47:37 10° NNW visible
29 Jan 4.6 13:47:54 10° NNE 13:52:40 39° E 13:57:24 10° SSE visible
30 Jan 5.8 02:41:26 10° SW 02:45:02 19° W 02:48:40 10° NW visible
30 Jan 6.0 13:12:19 10° NE 13:15:38 17° E 13:18:56 10° SE visible
31 Jan 4.3 02:03:12 10° S 02:08:02 44° W 02:12:53 10° NNW visible
31 Jan 3.4 14:13:07 10° NNE 14:18:13 71° ESE 14:23:16 10° S visible
